STARLINK-36445, 67313

Orbit data source: Space-Track

STARLINK-36445, 67313 is a payload satellite owned by SpaceX/Seattle (US) in LEO that was launched on Sun, 04 Jan 2026 UTC via an FALCON 9 launch vehicle from the Air Force Eastern Test Range (AFETR). Payload-class satellites include a variety of spacecraft equipped with specific instruments for various scientific and technological missions. These include communications satellites like Starlink; space stations such as the ISS; scientific satellites like the Hubble; Earth observation satellites from companies like Planet Labs, Umbra, and HawkEye 360; GPS; miniature CubeSats for education and research; and military/defense satellites.

Loading next visibility...
Identifier
67313, 2026-002J
Orbit
LEO
Country
Flag of USUS
Related business
Manufacturer
SpaceX/Seattle
Mission
Operational Commercial Communications
Bus & Motor
STARLINK V2MO, Unknown motor
Mass
575 kg wet, ~530 kg dry
Launch date (UTC)
2026-01-04 (5 months ago)
Launch vehicle
FALCON 9
Launch site
Air Force Eastern Test Range (AFETR)
Object type
Payload
Rocket body
Debris
Shape & HBR
Box + 2 Pan, 17.7 m
Radar Cross Section
36.964 m², Large (>1 m²)

Expand to show TLE details & history
Last TLE update: 17 hours ago

TLE from 17 hours ago
0 STARLINK-36445
1 67313U 26002J   26171.14120069  .00014505  00000-0  53535-3 0  9999
2 67313  43.0040 107.0145 0001517 257.6745 102.3937 15.27594376 26902
Epoch: 2026-06-20T03:23Z
TLE epoch observation values (Epoch: 2026-06-20T03:23:19.739Z)
Latitude
-0.00002°
Longitude
147.82215°
Altitude
483.005 km
Speed
7.626 km/s
True Right ascension
07h 08m 03s
True Declination
0° 00' 00"
Sunlit
Object was in daylight at epoch
Visualization orbit readout
Latitude
Unknown
Longitude
Unknown
Altitude
Unknown
Speed
Unknown
Apparent Right ascension
Unknown
Apparent Declination
Unknown
Sunlit
N/A
Visualization observer readout
Local Sidereal Time
07:18:48
Azimuth
Unknown
Elevation
Unknown
Doppler factor
Unknown
Orbital elements
Apogee altitude
485.992 km
Perigee altitude
483.909 km
Semi-major axis
6,863.088 km
Eccentricity
0.00015
Inclination
43.004°
RAAN
107.0145°
Arg. of periapsis
257.6745°
True anomaly
102.41068°
Mean anomaly
102.3937°
Eccentric anomaly
102.40219°
Mean motion
3.81737 °/min
Orbital period
94.31 mins
BSTAR
0.00053535
Loading maneuver chart data...
Computing Atmospheric mass density...
Loading historical data...
Loading historical data...
Loading historical data...
Loading historical data...
Loading historical data...
Loading historical data...
Loading historical data...

Documentation

Showing up to 5 results
|